KB7DZR Weather Reports


time (UTC)temp
C
wind
direction
speed
KPH
gust
KPH
rain 1hr
cm
rain 24hr
cm
rain mn
cm
humidity
%
barometer
mb
20260503053507 7 302 0.0 0.0 0.00 0.00 0.00 69 1018.1
20260503052508 7 302 0.0 0.0 0.00 0.00 0.00 68 1018.1
20260503052008 7 302 0.0 0.0 0.00 0.00 0.00 68 1018.0
20260503051508 7 302 0.0 0.0 0.00 0.00 0.00 68 1018.0
20260503043508 8 302 0.0 0.0 0.00 0.00 0.00 65 1017.9
20260503042506 8 302 0.0 0.0 0.00 0.00 0.00 66 1017.8
20260503035506 10 302 0.0 0.0 0.00 0.00 0.00 60 1017.6
20260503035007 10 302 0.0 1.6 0.00 0.00 0.00 59 1017.5
20260503034507 10 302 0.0 1.6 0.00 0.00 0.00 57 1017.4
20260503033006 11 302 0.0 0.0 0.00 0.00 0.00 55 1017.2
20260503032007 11 302 0.0 1.6 0.00 0.00 0.00 54 1017.1
20260503031508 12 306 0.0 1.6 0.00 0.00 0.00 54 1017.0
20260503031007 12 311 0.0 1.6 0.00 0.00 0.00 54 1016.9
20260503030006 13 312 0.0 1.6 0.00 0.00 0.00 50 1016.9
20260503025008 15 312 0.0 0.0 0.00 0.00 0.00 47 1016.9
20260503023006 16 312 0.0 0.0 0.00 0.00 0.00 48 1017.0
20260503015005 18 312 0.0 0.0 0.00 0.00 0.00 48 1017.0
20260503013006 19 309 8.0 11.3 0.00 0.00 0.00 33 1016.8
20260503012006 19 295 0.0 0.0 0.00 0.00 0.00 33 1016.8
20260503011506 20 294 0.0 1.6 0.00 0.00 0.00 34 1016.9
20260503011006 20 295 0.0 1.6 0.00 0.00 0.00 35 1016.7
20260503010507 20 294 0.0 4.8 0.00 0.00 0.00 35 1016.8
20260503005005 20 294 4.8 12.9 0.00 0.00 0.00 34 1016.7
20260503004505 20 294 9.7 12.9 0.00 0.00 0.00 34 1016.7
20260503002506 21 312 16.1 24.1 0.00 0.00 0.00 31 1016.5
20260503002006 21 313 0.0 11.3 0.00 0.00 0.00 28 1016.5
20260503001505 21 313 11.3 19.3 0.00 0.00 0.00 27 1016.5
20260503001006 21 313 8.0 14.5 0.00 0.00 0.00 27 1016.4
20260502235505 22 310 11.3 19.3 0.00 0.00 0.00 27 1016.4
20260502235006 21 314 12.9 20.9 0.00 0.00 0.00 27 1016.4
20260502234505 21 315 11.3 19.3 0.00 0.00 0.00 28 1016.4
20260502234006 21 319 11.3 20.9 0.00 0.00 0.00 29 1016.5
20260502232507 22 324 8.0 14.5 0.00 0.00 0.00 27 1016.6
20260502232005 22 324 9.7 19.3 0.00 0.00 0.00 26 1016.6
20260502230007 22 325 1.6 11.3 0.00 0.00 0.00 28 1016.6
20260502225007 22 324 9.7 16.1 0.00 0.00 0.00 27 1016.7
20260502223505 22 79 0.0 3.2 0.00 0.00 0.00 27 1016.7
20260502223005 22 78 0.0 9.7 0.00 0.00 0.00 26 1016.8
20260502222005 22 78 4.8 11.3 0.00 0.00 0.00 24 1016.9
20260502220007 22 83 0.0 0.0 0.00 0.00 0.00 25 1017.1
20260502215505 22 83 0.0 0.0 0.00 0.00 0.00 26 1017.1
20260502214007 22 84 1.6 11.3 0.00 0.00 0.00 23 1017.1
20260502213507 23 87 1.6 4.8 0.00 0.00 0.00 23 1017.2
20260502213009 23 87 1.6 8.0 0.00 0.00 0.00 22 1017.2
20260502211506 23 89 0.0 3.2 0.00 0.00 0.00 22 1017.3
20260502211008 22 89 1.6 4.8 0.00 0.00 0.00 26 1017.4
20260502205007 22 89 0.0 4.8 0.00 0.00 0.00 22 1017.5
20260502204506 22 91 3.2 9.7 0.00 0.00 0.00 21 1017.4
20260502204006 22 94 3.2 9.7 0.00 0.00 0.00 21 1017.5
20260502203006 22 100 0.0 4.8 0.00 0.00 0.00 21 1017.5
20260502202507 22 99 0.0 4.8 0.00 0.00 0.00 21 1017.5
20260502202006 22 100 1.6 4.8 0.00 0.00 0.00 23 1017.5
20260502201007 22 100 0.0 1.6 0.00 0.00 0.00 25 1017.6
20260502200508 22 99 0.0 11.3 0.00 0.00 0.00 23 1017.6
20260502194506 22 129 0.0 4.8 0.00 0.00 0.00 24 1017.7
20260502193006 21 144 0.0 0.0 0.00 0.00 0.00 24 1017.9
20260502192507 21 145 0.0 0.0 0.00 0.00 0.00 24 1018.0
20260502191506 21 145 0.0 0.0 0.00 0.00 0.00 25 1018.1
20260502190507 21 145 0.0 0.0 0.00 0.00 0.00 26 1018.1
20260502190006 21 145 0.0 0.0 0.00 0.00 0.00 26 1018.2
20260502184507 20 145 0.0 0.0 0.00 0.00 0.00 27 1018.2
20260502182007 20 145 0.0 0.0 0.00 0.00 0.00 30 1018.5
20260502180506 19 145 0.0 0.0 0.00 0.00 0.00 32 1018.6
20260502161506 14 145 0.0 0.0 0.00 0.00 0.00 51 1018.9
20260502160507 13 145 0.0 0.0 0.00 0.00 0.00 54 1018.9
20260502152006 10 145 0.0 0.0 0.00 0.00 0.00 67 1019.1
20260502151505 10 145 0.0 0.0 0.00 0.00 0.00 68 1019.0
20260502150507 8 145 0.0 0.0 0.00 0.00 0.00 67 1019.1
20260502130507 3 145 0.0 0.0 0.00 0.00 0.00 73 1018.7
20260502122507 3 145 0.0 0.0 0.00 0.00 0.00 74 1018.6
20260502122006 3 145 0.0 0.0 0.00 0.00 0.00 74 1018.6
20260502121507 3 145 0.0 0.0 0.00 0.00 0.00 73 1018.7
20260502115507 3 145 0.0 0.0 0.00 0.00 0.00 73 1018.8
20260502114506 3 145 0.0 0.0 0.00 0.00 0.00 73 1018.8
20260502113506 3 145 0.0 0.0 0.00 0.00 0.00 73 1018.8
20260502113007 3 145 0.0 0.0 0.00 0.00 0.00 73 1018.8
20260502111506 3 145 0.0 0.0 0.00 0.00 0.00 72 1018.9
20260502110507 3 145 0.0 0.0 0.00 0.00 0.00 71 1019.0
20260502105006 3 145 0.0 0.0 0.00 0.00 0.00 70 1019.1
20260502104007 3 145 0.0 0.0 0.00 0.00 0.00 68 1019.1
20260502103506 3 145 0.0 0.0 0.00 0.00 0.00 68 1019.0
20260502103006 3 145 0.0 0.0 0.00 0.00 0.00 68 1019.0
20260502102506 3 145 0.0 0.0 0.00 0.00 0.00 68 1019.0
20260502101006 3 145 0.0 0.0 0.00 0.00 0.00 68 1019.0
20260502100506 3 145 0.0 0.0 0.00 0.00 0.00 68 1019.0
20260502091506 4 145 0.0 0.0 0.00 0.00 0.00 64 1018.9
20260502091007 4 145 0.0 0.0 0.00 0.00 0.00 64 1018.9
20260502090507 5 145 0.0 0.0 0.00 0.00 0.00 64 1019.0
20260502071505 5 145 0.0 0.0 0.00 0.00 0.00 60 1019.0
20260502071005 5 145 0.0 0.0 0.00 0.00 0.00 60 1019.0